Regional Weather Roundup
Issued by NWS Newport/Morehead, NC

Current Version | Previous Version | Graphics & Text | Print | Product List | Glossary Off
Versions: 1 2 3 4 5 6 7 8 9 10 11 12 13 14 15 16 17 18 19 20 21 22 23 24 25 26 27 28 29 30 31 32 33 34 35 36 37 38 39 40 41 42 43 44 45 46 47 48 49 50

000
ASUS42 KMHX 301122
RWRMHX
WEATHER ROUNDUP FOR EASTERN NORTH CAROLINA
NATIONAL WEATHER SERVICE NEWPORT/MOREHEAD CITY NC
700 AM EDT TUE SEP 30 2014

NOTE: "FAIR" INDICATES FEW OR NO CLOUDS BELOW 12,000 FEET
WITH NO SIGNIFICANT WEATHER AND/OR OBSTRUCTIONS TO VISIBILITY

NCZ015>017-031-032-045>047-102-103-301200-
NORTH COAST

CITY           SKY/WX    TMP DP  RH WIND       PRES   REMARKS
EDENTON        CLEAR     61  60  97 N5        29.92S
ELIZABETH CITY CLEAR     64  62  93 N8        29.91S
KITTY HAWK     SUNNY     68  59  73 NE6       29.89S
MANTEO         PTCLDY    67  60  77 NE6       29.90S

$$

NCZ045>047-081-094-103-104-301200-
CENTRAL COAST

CITY           SKY/WX    TMP DP  RH WIND       PRES   REMARKS
FRISCO         CLOUDY    64  62  93 NE7       29.89R
SWANQUARTER      N/A     64 N/A N/A N7        29.85S

$$

NCZ095-097-098-100-101-301200-
SOUTHERN COAST

CITY           SKY/WX    TMP DP  RH WIND       PRES   REMARKS
BEAUFORT       CLOUDY    68  65  90 N6        29.88R
CEDAR ISLAND     N/A     70 N/A N/A NE12      29.91S
JACKSONVILLE   PTCLDY    62  61  96 N7        29.89F FOG
NEWPORT        NOT AVBL
PINEY ISLAND   PTSUNNY   71  66  84 N10       29.89R HAZE
WILMINGTON     MOCLDY    63  62  97 N10       29.89R FOG


$$

NCZ011>013-027>030-043-044-078>080-089-090>093-098-301200-
COASTAL PLAIN

CITY           SKY/WX    TMP DP  RH WIND       PRES   REMARKS
AHOSKIE        FOG       56  56  99 CALM      29.93S VSB 1/2
CLINTON        CLEAR     59  59 100 CALM      29.92S FOG
ELIZABETHTOWN  CLEAR     60  60 100 CALM      29.91S FOG
GOLDSBORO      CLEAR     62  61  98 CALM      29.90S
GREENVILLE     FOG       59  59 100 CALM      29.94S VSB 1/2
HAVELOCK       CLOUDY    65  63  93 N8        29.91R FOG
KENANSVILLE    CLEAR     59  57  94 CALM      29.93R FOG
KINSTON        MOCLDY    63  61  94 CALM      29.92R FOG
NEW BERN       CLEAR     64  60  87 N5        29.92R
RICHLANDS      MOCLDY    61  57  88 N3        29.91R
ROANOKE RAPIDS NOT AVBL
ROCKY MOUNT    FOG       61  60  97 CALM      29.92S VSB 1/4
WASHINGTON     PTCLDY    62  61  96 CALM      29.92R
WHITEVILLE     CLEAR     61  59  94 CALM      29.90S FOG

$$

AMZ130-135-150-152-154-156-158-170-250-252-270-ANZ085-086-088-633-658-670-301200-
MARINE OBSERVATIONS

STATION/POSITION TIME  TEMP    WIND        PRES    WAVE   SWELL
                       AIR SEA DIR/SP/G            HT/PER HT/PER
                 (UTC) (F)     (DEG/KT/KT) (MB)    (FT/S) (FT/S)
CHESAPEAKE LIGHT 1100   68      40/  8/  9 1013.7
BUOY 44014       1100   70 71   20/ 10/ 12 1012.1    2/ 7   2/ 7
DUCK             1100   70 72   40/ 10/ 12 1011.9
2E DUCK          1000                        N/A     2/ 8
OREGON INLET     1100   68 73   10/  5/  9 1012.1
BUOY 44095       1100      73                N/A     3/ 4
20E OREGON INLET NOT AVBL
HATTERAS CG      1100   67 74   50/  4/  8 1012.6
DIAMOND BUOY     1100   71     350/ 16/ 17 1011.5    4/ 5   2/ 7
CAPE LOOKOUT     1100   69      20/  9/ 10 1011.5
BEAUFORT LAB     1100   69 74   10/  6/  8 1011.4
30 SE NEW RIVER  1100   73 80   40/ 14/ 17 1010.7    3/ 5   2/ 7
5 SE WRIGHTSVILL 1100   65 75   20/ 16/ 17   N/A
BUOY 41002       1000   78 81  220/  4/  4 1010.4    3/ 8   2/ 8
BUOY 41004       1100   75 81   20/ 17/ 21 1009.5    5/ 6   2/15

$$



USA.gov is the U.S. government's official web portal to all federal, state and local government web resources and services.